Location: Knowlton
(51.2333°N, 1.2667°E)
Time: 10:47:40
(UTC+00:00)

Lacrosse 5 rocket - Pass Details

Date: 18 April 2021
Orbit: 461 x 633 km, 57.0° (Epoch: 05 May)

Event Time Altitude Azimuth Distance (km) Brightness Sun altitude
Rises 19:24:03 0° 251° (WSW) 2,642 5.6 -4.8°
Reaches altitude 10° 19:26:12 10° 255° (WSW) 1,785 4.8 -5.2°
Maximum altitude 19:30:13 61° 336° (NNW) 634 1.9 -5.7°
Drops below altitude 10° 19:34:29 10° 58° (ENE) 1,899 3.8 -6.3°
Sets 19:36:50 0° 62° (ENE) 2,830 4.6 -6.6°
